Regional Weather Roundup
Issued by NWS

Home | Current Version | Previous Version | Text Only | Print | Product List | Glossary On
Versions: 1 2 3 4 5 6 7 8 9 10 11 12 13 14 15 16 17 18 19 20 21 22 23 24 25 26 27 28 29 30 31 32 33 34 35 36 37 38 39 40 41 42 43 44 45 46 47 48 49 50
000
ASUS43 KOAX 120010
RWRNE

WEATHER ROUNDUP FOR NEBRASKA
NATIONAL WEATHER SERVICE OMAHA NE
600 PM CST THU FEB 11 2016

NOTES: SATELLITE DATA IS BEING USED TO AUGMENT CLOUD COVER ABOVE
       12000 FEET.
       "FAIR" INDICATES FEW OR NO CLOUDS BELOW 12,000 FEET WITH NO
       SIGNIFICANT WEATHER AND/OR OBSTRUCTIONS TO VISIBILITY.

  * THESE STATIONS DO NOT REPORT WEATHER SUCH AS RAIN...SNOW OR FOG.

NEZ001>004-019>022-054>056-120100-
NEBRASKA PANHANDLE

CITY           SKY/WX    TMP DP  RH WIND       PRES   REMARKS
SCOTTSBLUFF    CLOUDY    51  27  39 N12       30.15R
6HR MIN TEMP:  51; 6HR MAX TEMP:  60;

ALLIANCE       CLOUDY    46  30  53 NW13      30.12R
6HR MIN TEMP:  45; 6HR MAX TEMP:  51;

CHADRON        CLEAR     50  26  39 NW14      30.12R
6HR MIN TEMP:  50; 6HR MAX TEMP:  58;

KIMBALL        CLOUDY    46  28  49 NW6       30.18R
SIDNEY         CLOUDY    43  31  62 W9        30.15R
6HR MIN TEMP:  43; 6HR MAX TEMP:  54;

$$

NEZ057>060-069>072-079>082-120100-
SOUTHWEST NEBRASKA

CITY           SKY/WX    TMP DP  RH WIND       PRES   REMARKS
NORTH PLATTE   CLEAR     45  31  58 NW3       30.06R
6HR MIN TEMP:  31; 6HR MAX TEMP:  53;

IMPERIAL         N/A     49  33  54 NW9       30.11R
6HR MIN TEMP:  46; 6HR MAX TEMP:  54;

LEXINGTON      CLEAR     38  31  76 SW3       30.09R
MCCOOK         CLOUDY    41  33  73 CALM      30.09R
6HR MIN TEMP:  33; 6HR MAX TEMP:  49;

OGALLALA       CLEAR     46  31  56 W8        30.10R
$$

NEZ005>010-023>029-035>040-094-120100-
NORTH CENTRAL NEBRASKA

CITY           SKY/WX    TMP DP  RH WIND       PRES   REMARKS
VALENTINE      CLOUDY    42  32  67 N20       30.06R
6HR MIN TEMP:  36; 6HR MAX TEMP:  54;

AINSWORTH      MOCLDY    44  32  63 NW23G29   30.05R
BROKEN BOW     PTCLDY    39  32  76 SW7       30.04R WCI  34
6HR MIN TEMP:  30; 6HR MAX TEMP:  41;

O`NEILL        CLOUDY    31  30  94 E7        30.06R FOG     WCI  25
ORD            PTCLDY    35  30  82 SW9       30.04R WCI  28
6HR MIN TEMP:  27; 6HR MAX TEMP:  36;

THEDFORD       PTCLDY    48  32  54 W6        30.06R
$$

NEZ041-046>049-061>064-073>077-083>087-120100-
SOUTH CENTRAL NEBRASKA

CITY           SKY/WX    TMP DP  RH WIND       PRES   REMARKS
GRAND ISLAND   MOCLDY    30  26  85 SW9       30.10S WCI  22
6HR MIN TEMP:  25; 6HR MAX TEMP:  31;

AURORA         CLOUDY    31  28  88 S9        30.09F WCI  23
HASTINGS       CLOUDY    32  26  78 S9        30.09S WCI  24
6HR MIN TEMP:  27; 6HR MAX TEMP:  32;

HEBRON         CLOUDY    30  26  88 SW3       30.17R FOG
HOLDREGE       CLEAR     35  31  86 SW6       30.09R WCI  30
KEARNEY *      CLEAR     34  28  80 SW10      30.09R WCI  26
YORK           CLOUDY    28  27  93 S9        30.12S WCI  20
$$

NEZ011>018-030>034-042>045-120100-
NORTHEAST NEBRASKA

CITY           SKY/WX    TMP DP  RH WIND       PRES   REMARKS
NORFOLK        CLOUDY    26  21  81 SE10      30.11S WCI  16
6HR MIN TEMP:  21; 6HR MAX TEMP:  26; 6HR PCP: TRACE;

ALBION         CLOUDY    30  27  86 S9        30.08S WCI  22
BLAIR          CLOUDY    24  19  81 NE5       30.16S WCI  18
COLUMBUS *     CLOUDY    28  18  64 SE7       30.15R WCI  21
FREMONT        CLOUDY    27  20  77 CALM      30.19R
TEKAMAH        CLOUDY    22  15  75 SE5       30.21R WCI  16
6HR MIN TEMP:  17; 6HR MAX TEMP:  22; 6HR PCP: TRACE;

WAYNE          LGT SNOW  23  21  91 SE7       30.15S VSB 3/4 WCI  15
$$

NEZ050>053-065>068-078-088>093-120100-
SOUTHEAST NEBRASKA

CITY           SKY/WX    TMP DP  RH WIND       PRES   REMARKS
LINCOLN        CLOUDY    29  23  78 SW5       30.18S WCI  24
6HR MIN TEMP:  23; 6HR MAX TEMP:  29;

OMAHA EPPLEY   CLOUDY    27  20  75 E6        30.18F WCI  20
6HR MIN TEMP:  19; 6HR MAX TEMP:  28; 6HR PCP: TRACE;

BEATRICE       CLOUDY    31  25  77 W5        30.18R WCI  26
FALLS CITY     MOCLDY    33  22  63 SE5       30.18R WCI  29
6HR MIN TEMP:  29; 6HR MAX TEMP:  36;

NEBRASKA CITY  CLOUDY    31  22  70 S3        30.18R
PLATTSMOUTH    MOCLDY    29  21  72 SE5       30.17S WCI  24
$$

NEZ044-045-051>053-067-120100-
OMAHA AREA

CITY           SKY/WX    TMP DP  RH WIND       PRES   REMARKS
OMAHA EPPLEY   CLOUDY    27  20  75 E6        30.18F WCI  20
6HR MIN TEMP:  19; 6HR MAX TEMP:  28; 6HR PCP: TRACE;

BLAIR          CLOUDY    24  19  81 NE5       30.16S WCI  18
FREMONT        CLOUDY    27  20  77 CALM      30.19R
MILLARD        CLOUDY    30  22  71 SE3       30.18S
OFFUTT AFB     CLOUDY    30  21  69 SE6       30.17S WCI  24
PLATTSMOUTH    MOCLDY    29  21  72 SE5       30.17S WCI  24
WAHOO          CLOUDY    28  23  81 S3        30.19R
$$



USA.gov is the U.S. government's official web portal to all federal, state and local government web resources and services.